Powrót do katalogu

NOAA 16 DEB

AktywnySSO
NORAD 41134·DEBRIS·🇺🇸 United States

Wystrzelony Sep 21, 2000 z Vandenberg Space Force Base

Loading…

Następne Przeloty (najbliższe 24 godziny)

TLE

ŚwieżeSource: Space-Track

Epoka: Sep 14, 2026, 00:48 UTC

1 41134U 00055BR  26257.03362572  .00001138  00000-0  57976-3 0  9993
2 41134  98.6143 289.6136 0025894 242.3834 117.4711 14.17552812554287

Śledź NOAA 16 DEB w czasie rzeczywistym z AllMySat

Download on the App Store